Probability
0 0 0 0 1 1 1 2 3 3 5 9 14 16 12 9 11 13 15 18 20 20 19 20 22 21 19 19 20 20 21 22 22 21 22 22 21 21 21 21 20 20 18 16
0 0 0 0 0 1 2 3 3 3 6 11 15 16 13 11 12 13 15 17 19 20 20 21 22 19 16 15 16 16 18 21 21 20 21 22 22 21 20 20 21 21 19 17
0 0 0 1 1 1 2 3 3 4 6 11 15 16 14 13 13 13 14 16 19 19 18 19 19 17 13 10 10 10 12 16 17 18 18 21 22 22 21 21 22 22 20 19
0 0 0 1 1 1 1 2 2 3 4 7 11 13 12 13 14 13 14 18 21 19 16 15 15 14 12 9 7 7 9 11 14 15 16 18 22 23 23 22 22 21 20 19
0 0 0 1 1 0 0 1 2 2 3 5 7 7 9 11 13 14 15 19 22 21 18 15 15 15 14 12 10 8 9 11 13 14 15 18 21 24 24 23 21 19 18 18
1 0 0 0 0 0 0 2 4 5 7 7 6 7 9 11 12 13 15 17 19 20 20 19 18 18 17 16 13 11 11 12 13 14 16 18 22 24 23 21 19 16 15 15
1 0 0 0 0 1 3 5 7 9 11 11 10 10 11 13 15 14 14 13 13 18 22 22 21 20 19 18 14 12 12 13 13 14 15 18 22 23 21 19 17 16 14 13
2 2 2 2 2 3 7 8 7 7 8 10 12 12 12 15 17 16 13 10 10 15 20 22 22 21 20 19 16 14 13 14 14 14 14 17 22 23 21 19 18 16 14 12
4 3 4 4 3 5 7 7 5 4 5 8 11 12 13 16 18 16 13 10 10 12 16 19 19 19 19 18 18 17 16 16 16 16 16 19 23 24 22 20 17 14 11 10
5 4 4 4 4 4 5 4 4 5 6 7 10 13 15 17 17 15 12 10 10 10 12 15 17 17 17 17 18 19 19 19 18 18 20 22 23 22 20 19 15 12 10 9
4 4 4 5 4 4 4 4 5 6 7 7 8 11 14 16 16 14 10 9 9 10 11 14 16 16 16 16 17 19 19 19 19 19 20 21 20 17 15 13 11 9 8 9
2 3 3 4 4 3 2 3 5 7 7 6 6 8 11 14 13 10 7 7 8 9 11 14 16 16 16 17 17 17 18 18 18 17 16 16 15 13 11 8 5 4 4 5
1 1 1 2 2 1 1 2 5 7 7 5 5 7 11 12 10 6 4 5 6 7 10 13 15 16 16 18 18 17 17 17 16 13 11 11 11 12 10 6 3 1 1 1
0 0 0 0 0 0 1 3 5 6 5 4 5 8 10 11 8 5 4 5 5 7 8 10 12 13 14 15 16 16 15 15 14 11 8 7 8 9 9 7 5 4 2 1
0 0 0 0 0 0 1 3 5 5 3 4 7 9 10 10 8 6 5 4 4 5 5 6 8 10 11 11 11 12 13 11 10 9 7 5 5 6 6 7 8 7 6 4
0 0 0 0 0 0 0 1 3 4 4 5 8 9 10 9 8 8 6 4 4 4 4 4 5 6 7 7 7 8 9 7 6 6 5 4 4 4 5 7 8 8 7 6
0 0 0 0 0 0 0 0 1 3 5 7 9 9 9 8 9 8 6 4 4 4 5 5 4 5 5 5 5 5 4 4 3 4 5 4 4 3 4 5 6 7 7 7
0 0 0 0 0 0 0 0 0 1 4 7 9 9 8 7 8 7 5 4 4 6 8 7 5 4 4 4 5 4 2 1 2 3 4 3 2 2 2 2 4 6 6 6
0 0 0 0 0 0 0 0 0 1 3 6 8 8 8 7 8 7 5 4 5 7 9 8 6 5 4 5 5 4 1 0 1 1 1 1 0 0 0 0 1 3 5 5
0 0 0 0 0 0 0 0 0 2 4 6 7 8 8 8 8 7 6 5 6 7 8 7 6 5 4 5 3 2 1 0 0 0 0 0 0 0 0 0 0 2 4 5
0 0 0 0 0 0 0 0 2 5 7 7 7 8 8 8 7 6 5 5 5 5 5 4 4 3 2 2 1 0 0 0 0 0 0 0 0 0 0 1 1 1 3 5
1 1 0 0 0 1 1 2 5 9 10 8 6 5 6 5 4 3 3 2 2 2 1 1 1 1 0 0 0 0 0 0 0 0 0 0 0 0 1 2 2 3 4 5
3 3 2 1 1 2 3 5 8 10 10 7 5 4 4 3 3 1 1 1 0 0 0 0 0 0 0 0 0 0 0 0 0 0 0 0 0 0 1 2 3 3 4 5
4 4 3 2 2 2 4 7 9 10 9 6 4 3 3 3 3 2 0 0 0 0 0 0 0 0 0 0 0 0 0 0 0 0 0 0 0 0 0 1 2 2 3 4
3 2 2 2 2 1 2 5 7 7 6 4 3 2 3 3 3 1 0 0 0 0 0 0 0 0 0 0 0 0 0 0 0 0 0 1 1 0 0 0 1 1 3 4
1 0 1 1 1 0 0 1 2 3 3 2 1 1 1 2 2 1 0 0 0 0 0 0 0 0 0 0 0 0 0 0 0 0 0 1 1 0 0 0 1 2 3 3
0 1 1 1 1 0 0 0 0 1 1 1 0 0 0 1 1 0 0 0 0 0 0 0 0 0 0 0 0 0 0 0 0 0 0 1 1 0 0 1 1 2 2 3
Wind_Speed
12 11 9 9 10 11 9 8 9 7 5 1 2 2 2 3 4 2 2 3 3 2 1 2 2 1 1 1 1 1 1 1 1 1 2 2 2 2 2 2 3 3 3 3
12 12 11 11 10 11 9 8 8 7 5 2 2 3 2 2 2 2 2 2 2 2 1 1 1 0 0 1 1 1 1 2 1 1 2 2 2 2 2 3 3 3 3 3
11 12 13 11 8 8 7 6 7 7 4 2 3 2 2 2 1 1 1 1 2 2 1 1 0 1 1 1 1 2 2 2 1 1 2 2 3 2 2 3 2 3 3 3
10 11 12 5 5 7 6 5 5 4 3 2 2 2 3 3 1 1 1 1 1 1 1 1 1 1 1 2 2 2 2 3 2 2 2 2 2 2 2 2 2 3 3 3
8 11 8 5 4 5 5 4 3 3 2 3 2 0 2 3 2 1 0 1 1 1 1 1 1 1 1 2 2 2 3 3 3 3 2 2 2 3 3 3 3 3 3 3
9 10 8 3 2 3 5 4 2 3 2 2 2 3 1 3 3 2 2 1 1 1 1 1 1 1 1 2 2 2 3 3 3 3 2 2 2 2 2 3 3 3 3 3
10 9 5 3 4 4 5 2 5 5 5 4 3 3 2 3 3 2 2 1 1 1 1 1 0 1 1 1 2 3 3 2 2 2 2 2 2 2 2 3 3 3 3 3
7 8 4 4 5 3 2 3 3 4 3 3 3 3 3 2 2 2 1 1 1 1 1 1 1 1 1 1 2 2 3 2 2 2 3 2 2 2 2 3 4 4 3 3
2 2 1 3 3 3 2 2 2 2 2 1 1 1 2 2 2 1 1 0 1 1 1 1 1 1 1 1 2 2 2 2 2 1 1 1 2 2 2 2 2 2 2 2
3 2 1 0 0 0 2 2 1 1 1 2 1 1 2 1 1 0 0 0 0 1 1 0 1 0 0 1 2 2 2 1 1 1 1 1 1 1 1 1 1 2 2 2
4 3 4 2 3 3 2 2 2 2 1 1 1 1 1 1 1 1 1 1 1 0 1 1 0 1 1 2 2 2 2 2 2 2 1 1 1 0 1 1 1 2 2 1
3 3 3 4 3 4 3 2 2 2 2 2 0 1 1 0 0 1 1 1 1 0 0 0 1 1 1 1 2 1 2 2 2 2 1 1 1 1 1 1 1 1 1 1
3 3 3 4 4 4 4 2 2 2 1 1 1 1 1 0 0 0 1 1 1 1 1 0 0 0 1 1 2 2 2 1 2 2 1 1 1 1 1 1 1 1 1 1
4 4 4 4 5 4 4 3 3 2 2 2 2 1 1 0 0 0 0 1 1 0 0 0 0 1 1 1 1 1 2 2 2 2 2 1 1 1 1 1 2 1 2 3
5 5 4 4 5 5 3 2 3 3 3 2 1 1 1 1 1 1 0 1 1 1 1 1 1 2 1 1 1 1 1 2 2 3 2 2 1 1 1 1 1 1 1 1
5 5 5 5 6 5 4 3 3 3 2 2 1 2 1 1 1 1 1 1 1 0 1 1 1 2 1 1 2 1 1 2 2 3 3 2 2 1 2 1 1 0 0 1
5 5 5 6 5 4 3 3 3 2 2 1 1 1 1 1 1 1 1 1 1 1 1 2 2 1 2 2 3 3 2 1 1 2 2 2 2 2 2 1 1 1 0 1
4 5 5 6 5 4 3 3 3 3 2 1 1 1 1 1 1 1 1 2 1 1 1 2 2 2 2 2 2 3 3 2 1 1 2 1 2 2 2 2 2 2 1 1
4 4 5 5 5 4 4 3 3 3 2 1 1 2 1 1 1 0 1 1 1 1 1 2 2 2 2 2 2 2 2 3 3 2 1 1 1 2 2 2 2 2 2 1
5 5 5 5 5 4 4 3 3 3 2 2 2 2 2 2 2 1 1 1 1 1 1 1 1 2 2 2 3 3 3 3 3 2 2 1 2 2 1 2 2 2 2 2
5 4 5 5 4 3 3 3 3 3 2 3 3 2 2 2 2 2 2 2 1 0 1 2 2 2 1 2 3 3 3 3 3 2 2 2 1 2 2 2 2 2 2 1
4 4 4 4 3 3 3 3 3 3 2 2 3 3 2 2 2 2 1 1 1 1 2 2 1 1 2 4 4 3 3 3 3 2 2 2 2 2 2 2 2 2 2 2
3 4 4 4 4 3 3 2 2 2 2 2 3 3 3 2 2 2 2 1 2 2 2 1 1 1 2 3 3 3 3 3 3 3 2 2 2 2 2 2 2 2 2 1
3 3 3 4 4 4 3 3 3 2 3 3 3 3 2 2 2 2 1 2 2 3 2 1 3 3 3 3 3 3 3 2 3 3 3 2 2 2 2 2 2 2 1 2
3 4 4 4 4 3 3 3 3 3 4 3 3 3 3 2 2 1 1 2 3 3 2 2 4 4 4 3 3 3 2 2 3 3 3 3 2 2 2 2 2 2 2 1
3 3 3 3 3 3 3 3 2 2 3 2 2 2 2 2 2 2 2 2 3 3 3 2 2 4 3 3 2 2 2 2 2 3 4 4 3 2 2 2 3 3 2 2
4 3 3 3 3 3 3 2 2 2 2 2 2 2 2 2 2 2 2 2 3 3 3 3 2 2 2 2 2 2 2 2 3 3 3 3 2 2 2 2 2 2 3 2
Wind_Direction
273 277 269 261 267 268 262 263 274 282 284 215 165 113 113 109 107 97 132 133 133 126 100 107 94 79 75 315 333 320 313 284 251 234 231 222 226 238 233 231 229 224 223 222
276 272 270 267 265 266 268 272 275 278 290 353 64 90 90 93 127 163 181 176 151 125 115 103 89 299 229 270 317 317 292 278 270 255 247 224 216 218 222 220 221 215 223 216
274 276 274 264 272 276 276 288 297 297 314 3 7 36 66 73 116 182 188 193 158 149 171 190 212 254 269 274 290 290 287 276 264 240 247 243 232 224 221 220 215 212 215 207
268 274 265 274 296 296 284 285 300 313 333 337 357 24 69 64 54 135 194 173 149 177 183 216 251 250 266 278 281 281 280 284 276 257 246 244 233 223 220 221 223 217 217 211
265 266 262 260 288 307 296 288 314 312 316 324 0 335 98 88 72 63 125 133 164 193 202 228 251 258 262 266 273 276 274 279 277 267 257 242 226 219 213 211 221 221 214 205
259 267 268 270 310 326 293 255 5 358 348 348 328 280 20 56 56 58 65 66 126 161 205 216 242 239 264 285 285 283 280 280 278 274 271 254 233 221 218 215 219 221 215 207
258 265 266 331 327 292 272 345 29 25 26 14 4 14 65 70 51 56 83 84 73 122 132 158 195 184 230 282 292 293 296 282 280 272 254 242 224 220 218 213 216 221 216 204
253 259 260 360 336 343 29 20 17 26 32 22 39 67 85 86 68 53 82 96 82 100 91 82 127 173 214 281 303 311 308 298 284 280 268 236 180 208 218 220 214 215 208 199
247 241 47 355 10 33 12 337 10 17 32 22 339 112 109 86 70 30 11 67 103 105 101 97 114 157 202 295 299 290 301 312 298 281 275 253 200 203 211 218 224 220 207 205
272 250 241 89 29 334 348 347 348 342 303 250 230 153 139 126 120 254 275 323 130 155 168 151 110 78 303 264 274 280 288 297 284 264 247 246 196 207 215 227 239 242 227 222
266 274 299 320 344 339 352 7 353 333 300 269 186 165 180 169 174 196 235 233 232 209 194 200 171 272 273 278 276 279 269 277 273 262 257 224 202 167 184 163 236 244 253 252
313 352 318 312 314 325 322 323 316 312 326 352 35 166 190 165 172 192 205 193 156 221 205 211 223 259 299 303 295 289 280 267 260 254 227 221 203 146 61 165 194 210 203 238
308 309 301 304 312 318 301 296 300 305 313 318 307 276 240 215 196 175 185 192 187 213 217 194 165 324 290 281 293 282 278 292 281 274 256 234 219 203 192 192 222 251 247 214
320 313 302 308 306 301 285 286 285 280 281 279 277 247 213 226 136 149 156 160 166 215 234 203 285 309 310 297 282 310 308 298 295 287 288 282 265 236 223 207 188 217 227 227
301 303 294 294 287 287 281 268 271 267 257 238 210 215 215 173 153 159 125 100 101 55 13 346 330 330 337 330 319 309 311 308 300 294 279 269 260 274 262 233 228 179 139 176
293 291 292 287 275 268 264 263 269 284 288 268 184 146 161 186 160 148 138 131 108 33 355 338 331 333 329 320 306 270 254 295 302 310 308 305 293 294 293 279 287 288 201 164
281 281 284 285 286 274 266 270 277 276 279 287 130 127 151 195 161 140 155 146 108 29 355 340 328 306 300 302 295 286 278 258 229 280 300 318 332 333 323 325 284 269 232 146
269 274 277 284 285 278 261 259 271 279 273 226 185 169 167 187 215 177 147 134 124 56 335 308 310 291 286 300 301 299 304 302 274 266 287 321 325 325 328 325 322 336 21 134
260 267 274 278 277 273 268 264 263 269 269 234 194 173 183 223 233 200 137 155 189 243 284 295 281 267 289 321 312 285 292 301 300 290 284 287 278 292 307 318 328 353 4 21
279 273 273 271 270 270 270 261 257 258 252 224 207 197 202 213 207 207 213 271 283 295 300 310 277 286 298 337 315 292 292 291 293 303 305 295 299 310 321 323 333 355 357 355
291 286 282 277 275 274 268 258 249 241 231 218 209 210 218 221 213 204 225 255 269 303 252 235 252 278 296 305 276 272 283 292 295 288 285 289 307 331 336 346 345 338 334 347
304 299 289 281 276 275 275 264 254 243 235 209 209 216 218 222 225 218 213 236 237 200 238 256 266 298 303 286 273 276 284 289 295 299 306 326 343 344 340 343 340 329 338 358
304 304 301 296 288 278 270 258 245 237 231 220 221 222 222 229 231 229 228 216 215 214 231 243 245 252 275 273 289 294 298 305 305 305 316 337 332 327 328 329 328 324 328 333
286 286 288 279 273 271 269 266 257 243 234 233 226 219 218 227 231 232 231 186 188 200 241 209 182 212 239 266 283 288 298 314 311 304 307 305 306 310 315 316 314 312 329 339
290 288 290 283 264 253 238 236 235 229 231 224 225 223 227 225 229 221 206 182 177 195 225 197 201 217 235 261 276 284 293 301 303 306 310 303 296 301 319 326 322 325 331 337
273 277 278 270 259 251 249 245 237 226 222 217 216 222 232 223 216 221 221 219 217 220 243 241 212 213 237 255 265 275 279 273 278 278 283 287 290 301 328 332 338 342 339 351
252 250 256 263 250 240 238 233 232 234 226 213 217 226 232 217 205 210 220 233 228 226 238 239 232 216 220 246 272 279 272 265 270 281 287 298 313 323 328 326 340 335 323 336